When you browse on this site, cookies collect data to enhance your experience and personalize the content and advertising you see.
Visit our Privacy Policy to learn more. By continuing to use the site, you agree to this use of cookies and data.
  • In Austria
  • List of Countries
  • For 7 days
  • Water Temperature
  • Satellite Maps
  • Weather Map
  • News
  • Weather Widgets
  • user-avatar
    Login

    Hourly Weather Kalgoorlie

    Today, 21 May, Tuesday

    Time Temperature Precipitation Wind Pressure Humidity
    00:00 +16°C° 0 mm 3 mps 732 mmHg 80%
    01:00 +16°C° 0 mm 3 mps 732 mmHg 83%
    02:00 +14°C° 0 mm 3 mps 732 mmHg 82%
    03:00 +15°C° 0 mm 2 mps 732 mmHg 82%
    04:00 +14°C° 0 mm 2 mps 733 mmHg 82%
    05:00 +14°C° 0 mm 2 mps 733 mmHg 82%
    06:00 +15°C° 0 mm 2 mps 733 mmHg 78%
    07:00 +15°C° 0 mm 2 mps 734 mmHg 74%
    08:00 +16°C° 0 mm 1 mps 734 mmHg 70%
    09:00 +18°C° 0 mm 1 mps 734 mmHg 66%
    10:00 +20°C° 0 mm 1 mps 734 mmHg 62%
    11:00 +19°C° 0 mm 0 mps 734 mmHg 58%
    12:00 +21°C° 0 mm 1 mps 734 mmHg 57%
    13:00 +22°C° 0 mm 1 mps 733 mmHg 55%
    14:00 +23°C° 0 mm 1 mps 733 mmHg 52%
    15:00 +23°C° 0 mm 1 mps 733 mmHg 52%
    16:00 +23°C° 0 mm 1 mps 734 mmHg 52%
    17:00 +23°C° 0 mm 1 mps 734 mmHg 52%
    18:00 +21°C° 0 mm 2 mps 734 mmHg 55%
    19:00 +20°C° 0 mm 2 mps 734 mmHg 57%
    20:00 +20°C° 0 mm 3 mps 734 mmHg 59%
    21:00 +19°C° 0 mm 3 mps 735 mmHg 61%
    22:00 +18°C° 0 mm 3 mps 735 mmHg 63%
    23:00 +18°C° 0 mm 3 mps 735 mmHg 64%

    Tomorrow, 22 May, Wednesday

    Time Temperature Precipitation Wind Pressure Humidity
    00:00 +17°C° 0 mm 3 mps 735 mmHg 66%
    01:00 +17°C° 0 mm 3 mps 735 mmHg 67%
    02:00 +17°C° 0 mm 3 mps 735 mmHg 69%
    03:00 +16°C° 0 mm 3 mps 735 mmHg 70%
    04:00 +16°C° 0 mm 3 mps 735 mmHg 71%
    05:00 +16°C° 0 mm 3 mps 735 mmHg 72%
    06:00 +15°C° 0 mm 4 mps 735 mmHg 68%
    07:00 +17°C° 0 mm 4 mps 735 mmHg 65%
    08:00 +16°C° 0 mm 5 mps 735 mmHg 61%
    09:00 +19°C° 0 mm 5 mps 735 mmHg 51%
    10:00 +22°C° 0 mm 5 mps 735 mmHg 41%
    11:00 +24°C° 0 mm 6 mps 735 mmHg 32%
    12:00 +26°C° 0 mm 6 mps 734 mmHg 28%
    13:00 +27°C° 0 mm 5 mps 734 mmHg 25%
    14:00 +28°C° 0 mm 5 mps 733 mmHg 21%
    15:00 +27°C° 0 mm 4 mps 733 mmHg 22%
    16:00 +26°C° 0 mm 3 mps 733 mmHg 24%
    17:00 +25°C° 0 mm 2 mps 732 mmHg 25%
    18:00 +24°C° 0 mm 2 mps 732 mmHg 26%
    19:00 +23°C° 0 mm 2 mps 733 mmHg 26%
    20:00 +23°C° 0 mm 2 mps 733 mmHg 27%
    21:00 +21°C° 0 mm 2 mps 733 mmHg 27%
    22:00 +21°C° 0 mm 2 mps 733 mmHg 27%
    23:00 +21°C° 0 mm 3 mps 733 mmHg 27%

    Day after tomorrow, 23 May, Thursday

    Time Temperature Precipitation Wind Pressure Humidity
    00:00 +20°C° 0 mm 3 mps 733 mmHg 29%
    01:00 +20°C° 0 mm 3 mps 733 mmHg 31%
    02:00 +19°C° 0 mm 4 mps 732 mmHg 33%
    03:00 +18°C° 0 mm 4 mps 732 mmHg 38%
    04:00 +18°C° 0 mm 4 mps 732 mmHg 43%
    05:00 +17°C° 0 mm 4 mps 732 mmHg 49%
    06:00 +16°C° 0 mm 5 mps 733 mmHg 53%
    07:00 +16°C° 0 mm 5 mps 734 mmHg 58%
    08:00 +16°C° 0 mm 6 mps 734 mmHg 62%
    09:00 +19°C° 0 mm 6 mps 734 mmHg 56%
    10:00 +20°C° 0 mm 6 mps 735 mmHg 51%
    11:00 +22°C° 0 mm 6 mps 735 mmHg 45%
    12:00 +22°C° 0 mm 5 mps 735 mmHg 43%
    13:00 +23°C° 0 mm 5 mps 734 mmHg 41%
    14:00 +23°C° 0 mm 4 mps 734 mmHg 39%
    15:00 +23°C° 0 mm 4 mps 734 mmHg 41%
    16:00 +22°C° 0 mm 4 mps 734 mmHg 44%
    17:00 +21°C° 0 mm 4 mps 734 mmHg 47%
    18:00 +20°C° 0 mm 4 mps 735 mmHg 53%
    19:00 +17°C° 0 mm 5 mps 735 mmHg 59%
    20:00 +16°C° 0 mm 5 mps 735 mmHg 66%
    21:00 +15°C° 0 mm 5 mps 735 mmHg 66%
    22:00 +15°C° 0 mm 4 mps 735 mmHg 67%
    23:00 +14°C° 0 mm 3 mps 735 mmHg 68%

    24 May, Friday

    Time Temperature Precipitation Wind Pressure Humidity
    00:00 +14°C° 0 mm 3 mps 735 mmHg 69%
    01:00 +13°C° 0 mm 3 mps 735 mmHg 70%
    02:00 +13°C° 0 mm 3 mps 735 mmHg 71%
    03:00 +13°C° 0 mm 3 mps 735 mmHg 74%
    04:00 +12°C° 0 mm 3 mps 735 mmHg 76%
    05:00 +12°C° 0 mm 3 mps 735 mmHg 78%
    06:00 +12°C° 0 mm 3 mps 735 mmHg 78%
    07:00 +12°C° 0 mm 3 mps 735 mmHg 77%
    08:00 +13°C° 0 mm 3 mps 736 mmHg 77%
    09:00 +15°C° 0 mm 2 mps 736 mmHg 69%
    10:00 +17°C° 0 mm 2 mps 736 mmHg 61%
    11:00 +19°C° 0 mm 1 mps 735 mmHg 53%
    12:00 +20°C° 0 mm 1 mps 735 mmHg 48%
    13:00 +21°C° 0 mm 1 mps 734 mmHg 43%
    14:00 +21°C° 0 mm 2 mps 734 mmHg 38%
    15:00 +20°C° 0 mm 2 mps 734 mmHg 38%
    16:00 +20°C° 0 mm 2 mps 734 mmHg 38%
    17:00 +20°C° 0 mm 2 mps 734 mmHg 39%
    18:00 +19°C° 0 mm 3 mps 734 mmHg 41%
    19:00 +18°C° 0 mm 3 mps 734 mmHg 44%
    20:00 +17°C° 0 mm 3 mps 735 mmHg 47%
    21:00 +17°C° 0 mm 3 mps 735 mmHg 49%
    22:00 +16°C° 0 mm 3 mps 735 mmHg 51%
    23:00 +14°C° 0 mm 4 mps 735 mmHg 53%

    25 May, Saturday

    Time Temperature Precipitation Wind Pressure Humidity
    00:00 +14°C° 0 mm 4 mps 735 mmHg 56%
    01:00 +13°C° 0 mm 3 mps 734 mmHg 59%
    02:00 +13°C° 0 mm 3 mps 734 mmHg 62%
    03:00 +12°C° 0 mm 3 mps 734 mmHg 65%
    04:00 +12°C° 0 mm 3 mps 734 mmHg 68%
    05:00 +11°C° 0 mm 3 mps 734 mmHg 71%
    06:00 +12°C° 0 mm 3 mps 735 mmHg 71%
    07:00 +12°C° 0 mm 3 mps 735 mmHg 71%
    08:00 +12°C° 0 mm 3 mps 736 mmHg 72%
    09:00 +14°C° 0 mm 3 mps 736 mmHg 67%
    10:00 +16°C° 0 mm 3 mps 736 mmHg 63%
    11:00 +18°C° 0 mm 3 mps 736 mmHg 58%
    12:00 +18°C° 0 mm 2 mps 735 mmHg 55%
    13:00 +19°C° 0 mm 2 mps 735 mmHg 53%
    14:00 +19°C° 0 mm 2 mps 734 mmHg 50%
    15:00 +19°C° 0 mm 3 mps 734 mmHg 51%
    16:00 +18°C° 0 mm 3 mps 734 mmHg 51%
    17:00 +18°C° 0 mm 3 mps 734 mmHg 52%
    18:00 +17°C° 0 mm 3 mps 735 mmHg 55%
    19:00 +16°C° 0 mm 3 mps 735 mmHg 57%
    20:00 +16°C° 0 mm 3 mps 736 mmHg 60%
    21:00 +14°C° 0 mm 3 mps 736 mmHg 60%
    22:00 +14°C° 0 mm 3 mps 736 mmHg 61%
    23:00 +13°C° 0 mm 4 mps 736 mmHg 61%

    26 May, Sunday

    Time Temperature Precipitation Wind Pressure Humidity
    00:00 +13°C° 0 mm 4 mps 736 mmHg 64%
    01:00 +13°C° 0 mm 4 mps 736 mmHg 68%
    02:00 +12°C° 0 mm 4 mps 736 mmHg 71%
    03:00 +12°C° 0 mm 4 mps 736 mmHg 74%
    04:00 +11°C° 0 mm 3 mps 736 mmHg 77%
    05:00 +11°C° 0 mm 3 mps 736 mmHg 81%
    06:00 +11°C° 0 mm 4 mps 736 mmHg 81%
    07:00 +12°C° 0 mm 4 mps 737 mmHg 80%
    08:00 +12°C° 0 mm 4 mps 737 mmHg 80%
    09:00 +13°C° 0 mm 4 mps 737 mmHg 71%
    10:00 +15°C° 0 mm 4 mps 737 mmHg 62%
    11:00 +18°C° 0 mm 4 mps 737 mmHg 52%
    12:00 +18°C° 0 mm 4 mps 737 mmHg 50%
    13:00 +19°C° 0 mm 4 mps 736 mmHg 47%
    14:00 +19°C° 0 mm 3 mps 735 mmHg 44%
    15:00 +19°C° 0 mm 3 mps 736 mmHg 45%
    16:00 +18°C° 0 mm 3 mps 736 mmHg 46%
    17:00 +18°C° 0 mm 3 mps 736 mmHg 47%
    18:00 +17°C° 0 mm 3 mps 736 mmHg 50%
    19:00 +17°C° 0 mm 3 mps 737 mmHg 52%
    20:00 +15°C° 0 mm 4 mps 737 mmHg 55%
    21:00 +14°C° 0 mm 4 mps 737 mmHg 60%
    22:00 +14°C° 0 mm 4 mps 737 mmHg 66%
    23:00 +13°C° 0 mm 4 mps 737 mmHg 71%
    Show more